Flag for United Kingdom Weather past 2 weeks in Glasgow, Scotland, United Kingdom

Now
54 °F

Scattered clouds.


Feels Like: 51 °F
Forecast: 36 / 60 °F
Wind: 9 mph from Northwest

Location: Glasgow Airport

Current Time: May 22, 2015 at 7:44:23 PM

Latest Report: May 22, 2015 at 7:20 PM


Visibility: N/A

Pressure: 30.24 "Hg

Humidity: 67%

Dew point: 43 °F

Location of GlasgowLocation

Historic Weather in Glasgow — Graph

°F

Glasgow temperature yesterday

Maximum temperature yesterday: 55 °F (at 3:20 PM)
Minimum temperature yesterday: 48 °F (at 12:20 AM)
Average temperature yesterday: 52 °F

Past Weeks' High & Low Weather Summary

 TemperatureHumidityPressure
High61 °F (May 9, 3:50 PM)100% (May 8, 5:50 AM)30.24 "Hg (May 8, 5:50 AM)
Low30 °F (May 8, 1:20 AM)43% (May 7, 6:20 PM)29.39 "Hg (May 18, 3:50 PM)
Average49 °F77%29.91 "Hg
* Reported May 7 6:20 PM — May 22 6:20 PM, Glasgow, Weather by CustomWeather, © 2015

Note: Actual official high and low records may vary slightly from our data, if they occured in-between our weather recording intervals... More about our weather records

Advertising

Glasgow weather history for previous 24 hours

 ConditionsComfort  
Time TempWeatherWind HumidityBarometerVisibility
6:20 PM
Fri, May 22
54 °FScattered clouds.14 mph67%30.24 "HgN/A
5:50 PM54 °FBroken clouds.14 mph72%30.21 "HgN/A
5:20 PM54 °FScattered clouds.14 mph72%30.21 "HgN/A
4:50 PM55 °FScattered clouds.14 mph67%30.21 "HgN/A
4:20 PM57 °FScattered clouds.16 mph63%30.21 "HgN/A
3:50 PM57 °FScattered clouds.15 mph59%30.18 "HgN/A
3:20 PM59 °FScattered clouds.17 mph59%30.18 "HgN/A
2:50 PM59 °FScattered clouds.17 mph63%30.15 "HgN/A
2:20 PM59 °FScattered clouds.16 mph72%30.15 "HgN/A
1:50 PM57 °FScattered clouds.16 mph72%30.15 "HgN/A
1:20 PM57 °FPartly sunny.14 mph77%30.15 "HgN/A
12:50 PM55 °FPartly sunny.18 mph82%30.15 "HgN/A
12:20 PM57 °FBroken clouds.20 mph82%30.15 "HgN/A
11:50 AM55 °FBroken clouds.16 mph88%30.15 "HgN/A
11:20 AM54 °FBroken clouds.16 mph88%30.15 "HgN/A
10:50 AM54 °FBroken clouds.15 mph88%30.15 "HgN/A
10:20 AM54 °FBroken clouds.15 mph88%30.15 "HgN/A
9:50 AM54 °FLight rain. Broken clouds.14 mph88%30.12 "Hg5 mi
9:20 AM54 °FLight rain. Broken clouds.14 mph88%30.15 "HgN/A
8:50 AM54 °FBroken clouds.14 mph88%30.15 "HgN/A
8:20 AM52 °FScattered showers. Partly sunny.15 mph94%30.15 "HgN/A
7:50 AM54 °FScattered showers. Partly sunny.15 mph88%30.12 "HgN/A
7:20 AM52 °FScattered showers. Partly sunny.15 mph94%30.12 "HgN/A
6:50 AM52 °FPartly sunny.12 mph94%30.12 "HgN/A
6:20 AM52 °FPartly sunny.14 mph94%30.12 "HgN/A
5:50 AM52 °FPassing clouds.17 mph94%30.12 "Hg5 mi
5:20 AM52 °FPassing clouds.18 mph94%30.12 "Hg6 mi
4:50 AM52 °FPassing clouds.15 mph94%30.12 "HgN/A
4:20 AM52 °FPassing clouds.14 mph94%30.12 "HgN/A
3:50 AM52 °FOvercast.12 mph94%30.12 "HgN/A
3:20 AM52 °FPartly cloudy.8 mph94%30.15 "HgN/A
2:50 AM54 °FLight rain. Low clouds.10 mph94%30.15 "Hg6 mi
2:20 AM54 °FLight rain. Passing clouds.12 mph94%30.15 "Hg4 mi
1:50 AM54 °FLight rain. Passing clouds.13 mph94%30.15 "Hg4 mi
1:20 AM54 °FLight rain. Mostly cloudy.14 mph94%30.15 "Hg4 mi
12:50 AM54 °FLight rain. Mostly cloudy.14 mph94%30.15 "Hg5 mi
12:20 AM54 °FLight rain. Overcast.14 mph94%30.15 "Hg4 mi
11:50 PM
Thu, May 21
54 °FOvercast.8 mph88%30.15 "HgN/A
11:20 PM54 °FOvercast.13 mph88%30.15 "HgN/A
10:20 PM54 °FOvercast.10 mph88%30.15 "HgN/A
9:50 PM54 °FPartly sunny.13 mph88%30.15 "HgN/A
9:20 PM54 °FPartly sunny.16 mph82%30.15 "HgN/A
8:50 PM54 °FBroken clouds.16 mph82%30.15 "HgN/A
8:20 PM54 °FPartly sunny.18 mph82%30.15 "HgN/A
7:50 PM54 °FPartly sunny.12 mph82%30.15 "HgN/A
7:20 PM54 °FPartly sunny.12 mph77%30.15 "HgN/A
Weather by CustomWeather, © 2015

See weather overviewHow to use our weather pages